Location: Alincthun
(50.7310°N, 1.8022°E)
Time: 08:03:50
(UTC+00:00)

Lacrosse 5 - Pass Details

Date: 17 February 2020
Orbit: 715 x 724 km, 57.0° (Epoch: 21 March)

Event Time Altitude Azimuth Distance (km) Brightness Sun altitude
Exits shadow 04:38:35 63° 290° (WNW) 806 1.8 -23.3°
Maximum altitude 04:39:24 83° 215° (SW) 731 1.7 -23.2°
Drops below altitude 10° 04:44:30 10° 127° (SE) 2,206 5.0 -22.4°
Sets 04:46:53 0° 127° (SE) 3,125 5.8 -22.0°
